Location: Nians�bougou
(13.2321°N, 4.9818°W)
Time: 08:36:26
(UTC+00:00)

Cosmos 2084 - Pass Details

Date: 18 February 2020
Orbit: 568 x 614 km, 62.8° (Epoch: 09 April)

Event Time Altitude Azimuth Distance (km) Brightness Sun altitude
Exits shadow 05:24:41 34° 321° (NW) 999 4.2 -19.3°
Drops below altitude 10° 05:28:02 10° 5° (N) 1,964 6.1 -18.5°
Sets 05:30:26 0° 13° (NNE) 2,869 7.0 -17.9°
